Carbondale, IL

9:08 PM CDT on April 27, 2017 (GMT -0500)
Southern Illinois

Weather History for KMDH - March, 2013

Change the Weather History Date:

Sunday, March 3, 2013

  Actual Average Record
Temperature  
Mean Temperature 34 °F -  
Max Temperature 42 °F 53 °F 77 °F (1946)
Min Temperature 25 °F 34 °F 2 °F (1943)
Degree Days  
Heating Degree Days 32    
Moisture  
Dew Point 19 °F    
Average Humidity 54    
Maximum Humidity 72    
Minimum Humidity 31    
Precipitation  
Precipitation 0.00 in - - ()
Sea Level Pressure  
Sea Level Pressure 30.16 in    
Wind  
Wind Speed 3 mph (WSW)    
Max Wind Speed 7 mph    
Max Gust Speed -    
Visibility 10 miles    
Events      
Averages and records for this station are not official NWS values.
T = Trace of Precipitation, MM = Missing Value Source: NWS Daily Summary

Daily Weather History Graph

Daily Weather History Graph

Search for Another Location

Airport or City:

Trip Planner

Search our weather history database for the weather conditions in past years. The results will help you decide how hot, cold, wet, or windy it might be!

Date:

Astronomy

Mar. 03, 2013 Rise Set
Actual Time 6:25 AM CST 5:52 PM CST
Civil Twilight 5:59 AM CST 6:19 PM CST
Nautical Twilight 5:28 AM CST 6:49 PM CST
Astronomical Twilight 4:58 AM CST 7:20 PM CST
Moon No Moon Rise 9:47 AM CST (3/3)
Length of Visible Light 12h 20m
Length of Day
11h 27m
Waning Gibbous, 63% of the Moon is Illuminated
Mar 3
Waning Gibbous
Mar 4
Last Quarter
Mar 11
New
Mar 19
First Quarter
Mar 27
Full

Hourly Weather History & Observations

Time (CST) Temp. Windchill Dew Point Humidity Pressure Visibility Wind Dir Wind Speed Gust Speed Precip Events Conditions
12:52 AM 28.9 °F 25.2 °F 18.0 °F 64% 30.23 in 10.0 mi WNW 3.5 mph - N/A   Clear
1:52 AM 28.0 °F 24.2 °F 17.1 °F 63% 30.23 in 10.0 mi West 3.5 mph - N/A   Clear
2:52 AM 26.1 °F 21.9 °F 17.1 °F 69% 30.22 in 10.0 mi West 3.5 mph - N/A   Clear
3:52 AM 26.1 °F 21.9 °F 17.1 °F 69% 30.21 in 10.0 mi West 3.5 mph - N/A   Clear
4:52 AM 25.0 °F 20.7 °F 17.1 °F 72% 30.21 in 10.0 mi West 3.5 mph - N/A   Clear
6:52 AM 25.0 °F - 17.1 °F 72% 30.21 in 10.0 mi Calm Calm - N/A   Clear
7:52 AM 28.9 °F 22.8 °F 19.0 °F 67% 30.22 in 10.0 mi NNW 5.8 mph - N/A   Clear
8:52 AM 30.9 °F 26.2 °F 19.0 °F 61% 30.23 in 10.0 mi NW 4.6 mph - N/A   Scattered Clouds
9:52 AM 34.0 °F - 16.0 °F 48% 30.21 in 10.0 mi Calm Calm - N/A   Scattered Clouds
10:52 AM 36.0 °F 32.1 °F 18.0 °F 48% 30.21 in 10.0 mi North 4.6 mph - N/A   Clear
11:52 AM 37.9 °F - 17.1 °F 43% 30.19 in 10.0 mi Calm Calm - N/A   Clear
12:52 PM 41.0 °F - 19.0 °F 41% 30.16 in 10.0 mi Calm Calm - N/A   Clear
1:52 PM 42.1 °F 37.7 °F 18.0 °F 38% 30.13 in 10.0 mi SW 6.9 mph - N/A   Mostly Cloudy
2:52 PM 41.0 °F 36.4 °F 16.0 °F 36% 30.12 in 10.0 mi SW 6.9 mph - N/A   Overcast
3:52 PM 42.1 °F - 12.9 °F 31% 30.10 in 10.0 mi Calm Calm - N/A   Overcast
4:52 PM 42.1 °F - 15.1 °F 34% 30.09 in 10.0 mi Calm Calm - N/A   Overcast
5:52 PM 41.0 °F - 18.0 °F 40% 30.09 in 10.0 mi Calm Calm - N/A   Overcast
6:52 PM 39.9 °F 35.8 °F 23.0 °F 51% 30.10 in 10.0 mi East 5.8 mph - N/A   Overcast
7:52 PM 39.0 °F 35.7 °F 24.1 °F 55% 30.10 in 10.0 mi ESE 4.6 mph - N/A   Overcast
8:52 PM 39.0 °F 34.8 °F 25.0 °F 57% 30.10 in 10.0 mi South 5.8 mph - N/A   Overcast
9:52 PM 39.0 °F 35.7 °F 24.1 °F 55% 30.09 in 10.0 mi SSE 4.6 mph - N/A   Overcast
10:52 PM 39.0 °F 35.7 °F 25.0 °F 57% 30.09 in 10.0 mi South 4.6 mph - N/A   Overcast
11:52 PM 37.9 °F 34.4 °F 27.0 °F 65% 30.09 in 10.0 mi ESE 4.6 mph - N/A   Overcast